Flag for Italy Weather past 2 weeks in Bolzano, Italy

Now
79 °F

Passing clouds.


Feels Like: 80 °F
Forecast: 45 / 70 °F
Wind: 8 mph from Southeast

Location: Bolzano

Current Time: Sep 21, 2014 at 7:11:15 PM

Latest Report: Sep 21, 2014 at 5:50 PM


Visibility: N/A

Pressure: 29.86 "Hg

Humidity: 58%

Dew point: 63 °F

Location of BolzanoLocation

Historic Weather in Bolzano — Graph

°F

Bolzano temperature yesterday

Maximum temperature yesterday: 70 °F (at 11:50 AM)
Minimum temperature yesterday: 63 °F (at 6:50 AM)
Average temperature yesterday: 66 °F

Past Weeks' High & Low Weather Summary

 TemperatureHumidityPressure
High84 °F (Sep 7, 3:50 PM)100% (Sep 6, 9:50 PM)30.12 "Hg (Sep 6, 9:50 PM)
Low50 °F (Sep 12, 6:50 AM)32% (Sep 12, 3:50 PM)29.74 "Hg (Sep 11, 2:50 PM)
Average70 °F73%29.97 "Hg
* Reported Sep 6 5:50 PM — Sep 21 5:50 PM, Bolzano, Weather by CustomWeather, © 2014

Note: Actual official high and low records may vary slightly from our data, if they occured in-between our weather recording intervals... More about our weather records

Advertising

Bolzano weather history for previous 24 hours

 ConditionsComfort  
Time TempWeatherWind HumidityBarometerVisibility
5:50 PM
Sep 21
79 °FPassing clouds.8 mph58%29.86 "HgN/A
4:50 PM81 °FPassing clouds.6 mph54%29.86 "HgN/A
3:50 PM75 °FScattered clouds.6 mph69%29.86 "HgN/A
2:50 PM77 °FScattered clouds.5 mph61%29.89 "HgN/A
1:50 PM79 °FScattered clouds.5 mph54%29.92 "HgN/A
12:50 PM77 °FPassing clouds.5 mph65%29.95 "HgN/A
11:50 AM73 °FPassing clouds.5 mph69%29.98 "HgN/A
10:50 AM70 °FSunny.1 mph73%30.01 "Hg10 mi
9:50 AM68 °FSunny.1 mph78%30.01 "Hg10 mi
8:50 AM59 °FPassing clouds.No wind100%30.01 "HgN/A
7:50 AM61 °FPassing clouds.2 mph94%30.01 "HgN/A
6:50 AM61 °FPassing clouds.3 mph100%30.01 "HgN/A
10:50 PM
Sep 20
63 °FPassing clouds.2 mph94%30.04 "HgN/A
9:50 PM66 °FPassing clouds.No wind94%30.01 "HgN/A
8:50 PM64 °FPassing clouds.2 mph88%30.01 "HgN/A
7:50 PM66 °FScattered clouds.2 mph88%29.98 "HgN/A
Weather by CustomWeather, © 2014

See weather overviewHow to use our weather pages